EW8485 Weather Reports


Display with metric or nautical units.
time (UTC)temp
F
wind
direction
speed
MPH
gust
MPH
rain 1hr
in
rain 24hr
in
rain mn
in
humidity
%
barometer
mb
20260902192328 97 352 2.0 9.0 0.00 0.00 0.00 55 1009.2
20260902192057 96 217 2.0 5.0 0.00 0.00 0.00 58 1009.2
20260902191323 96 182 3.0 8.0 0.00 0.00 0.00 58 1009.3
20260902190822 95 261 3.0 8.0 0.00 0.00 0.00 59 1009.3
20260902190324 95 231 3.0 8.0 0.00 0.00 0.00 59 1009.3
20260902185824 95 78 3.0 8.0 0.00 0.00 0.00 60 1009.3
20260902185321 95 207 3.0 11.0 0.00 0.00 0.00 61 1009.3
20260902184820 95 237 3.0 11.0 0.00 0.00 0.00 61 1009.4
20260902184320 96 204 2.0 7.0 0.00 0.00 0.00 61 1009.5
20260902183818 95 169 3.0 7.0 0.00 0.00 0.00 61 1009.6
20260902183318 95 272 3.0 10.0 0.00 0.00 0.00 61 1009.7
20260902182819 96 212 2.0 10.0 0.00 0.00 0.00 60 1009.9
20260902182319 95 187 2.0 9.0 0.00 0.00 0.00 61 1009.9
20260902182048 95 37 2.0 8.0 0.00 0.00 0.00 62 1010.0
20260902181317 94 121 4.0 10.0 0.00 0.00 0.00 63 1010.0
20260902180817 94 202 3.0 10.0 0.00 0.00 0.00 63 1010.1
20260902180313 94 256 2.0 10.0 0.00 0.00 0.00 64 1010.2
20260902175814 93 252 3.0 10.0 0.00 0.00 0.00 64 1010.3
20260902175313 93 259 3.0 10.0 0.00 0.00 0.00 65 1010.3
20260902174813 93 219 3.0 10.0 0.00 0.00 0.00 65 1010.5
20260902174314 93 276 2.0 7.0 0.00 0.00 0.00 65 1010.6
20260902173814 92 220 3.0 8.0 0.00 0.00 0.00 66 1010.7
20260902173312 92 217 3.0 10.0 0.00 0.00 0.00 67 1010.8
20260902172808 92 261 3.0 11.0 0.00 0.00 0.00 66 1010.9
20260902172308 91 230 4.0 11.0 0.00 0.00 0.00 69 1011.0
20260902171808 91 213 3.0 11.0 0.00 0.00 0.00 68 1011.0
20260902171307 91 220 4.0 11.0 0.00 0.00 0.00 69 1011.1
20260902170812 91 238 2.0 9.0 0.00 0.00 0.00 71 1011.1
20260902170806 91 258 3.0 10.0 0.00 0.00 0.00 69 1011.1
20260902165806 90 203 3.0 11.0 0.00 0.00 0.00 73 1011.2
20260902165535 89 214 4.0 11.0 0.00 0.00 0.00 73 1011.3
20260902164803 89 262 3.0 10.0 0.00 0.00 0.00 73 1011.3
20260902164302 89 243 3.0 11.0 0.00 0.00 0.00 74 1011.4
20260902163802 89 234 4.0 11.0 0.00 0.00 0.00 74 1011.5
20260902163304 88 247 4.0 9.0 0.00 0.00 0.00 75 1011.5
20260902162804 88 240 3.0 9.0 0.00 0.00 0.00 76 1011.6
20260902162306 88 247 3.0 8.0 0.00 0.00 0.00 77 1011.6
20260902161758 87 272 4.0 10.0 0.00 0.00 0.00 79 1011.6
20260902161300 87 290 4.0 10.0 0.00 0.00 0.00 79 1011.6
20260902160759 87 243 4.0 10.0 0.00 0.00 0.00 79 1011.6
20260902160259 87 258 3.0 9.0 0.00 0.00 0.00 79 1011.7
20260902155758 87 231 3.0 9.0 0.00 0.00 0.00 80 1011.6
20260902155300 87 266 4.0 10.0 0.00 0.00 0.00 80 1011.6
20260902154759 87 310 4.0 12.0 0.00 0.00 0.00 80 1011.6
20260902154255 87 192 4.0 12.0 0.00 0.00 0.00 81 1011.6
20260902153754 86 200 4.0 11.0 0.00 0.00 0.00 82 1011.6
20260902153254 86 212 4.0 11.0 0.00 0.00 0.00 82 1011.5
20260902152754 85 271 4.0 9.0 0.00 0.00 0.00 83 1011.5
20260902152252 85 203 4.0 9.0 0.00 0.00 0.00 84 1011.4
20260902151753 85 235 4.0 9.0 0.00 0.00 0.00 84 1011.4
20260902151252 85 258 3.0 8.0 0.00 0.00 0.00 85 1011.4
20260902150753 85 226 3.0 7.0 0.00 0.00 0.00 85 1011.4
20260902150249 85 259 3.0 9.0 0.00 0.00 0.00 86 1011.3
20260902145749 84 236 3.0 9.0 0.00 0.00 0.00 86 1011.2
20260902145516 84 254 3.0 10.0 0.00 0.00 0.00 86 1011.3
20260902145027 84 260 3.0 10.0 0.00 0.00 0.00 87 1011.2
20260902144515 84 206 3.0 7.0 0.00 0.00 0.00 88 1011.2
20260902143743 83 221 2.0 7.0 0.00 0.00 0.00 88 1011.2
20260902143237 83 259 2.0 9.0 0.00 0.00 0.00 89 1011.2
20260902142735 83 233 2.0 9.0 0.00 0.00 0.00 90 1011.2
20260902142235 83 292 2.0 6.0 0.00 0.00 0.00 91 1011.3
20260902142003 82 248 1.0 5.0 0.00 0.00 0.00 91 1011.3
20260902141849 82 229 1.0 3.0 0.00 0.00 0.00 92 1011.4
20260902141003 82 237 0.0 3.0 0.00 0.00 0.00 93 1011.3
20260902140230 81 238 0.0 2.0 0.00 0.00 0.00 93 1011.4
20260902135730 81 245 0.0 2.0 0.00 0.00 0.00 94 1011.4
20260902135228 81 255 0.0 1.0 0.00 0.00 0.00 94 1011.4
20260902134727 80 255 0.0 2.0 0.00 0.00 0.00 95 1011.4
20260902134226 80 256 0.0 2.0 0.00 0.00 0.00 95 1011.3
20260902133722 80 236 0.0 1.0 0.00 0.00 0.00 96 1011.3
20260902133454 80 236 0.0 1.0 0.00 0.00 0.00 96 1011.2
20260902132718 80 234 0.0 0.0 0.00 0.00 0.00 96 1011.1
20260902132218 79 234 0.0 1.0 0.00 0.00 0.00 97 1011.2
20260902131718 79 234 0.0 1.0 0.00 0.00 0.00 97 1011.1
20260902131218 79 234 0.0 1.0 0.00 0.00 0.00 97 1011.0
20260902130718 79 234 0.0 1.0 0.00 0.00 0.00 97 1011.0
20260902130216 79 233 0.0 1.0 0.00 0.00 0.00 97 1010.9
20260902125712 78 233 0.0 0.0 0.00 0.00 0.00 97 1010.8
20260902125209 78 233 0.0 0.0 0.00 0.00 0.00 97 1010.8
20260902124707 78 233 0.0 2.0 0.00 0.00 0.00 97 1010.7
20260902124437 78 233 0.0 2.0 0.00 0.00 0.00 97 1010.6
20260902123705 78 246 0.0 0.0 0.00 0.00 0.00 97 1010.5
20260902123158 78 246 0.0 0.0 0.00 0.00 0.00 97 1010.3
20260902122711 78 246 0.0 0.0 0.00 0.00 0.00 97 1010.2
20260902122155 78 246 0.0 0.0 0.00 0.00 0.00 96 1010.1
20260902121653 78 246 0.0 0.0 0.00 0.00 0.00 96 1010.1
20260902121153 78 246 0.0 1.0 0.00 0.00 0.00 96 1010.1
20260902120647 78 246 0.0 1.0 0.00 0.00 0.00 97 1010.2
20260902120145 78 246 0.0 1.0 0.00 0.00 0.00 97 1010.2
20260902115644 78 245 0.0 1.0 0.00 0.00 0.00 97 1010.2
20260902115141 78 245 0.0 2.0 0.00 0.00 0.00 97 1010.1
20260902114641 78 245 0.0 2.0 0.00 0.00 0.00 97 1010.0
20260902114411 78 236 0.0 1.0 0.00 0.00 0.00 96 1010.0
20260902113639 78 236 0.0 1.0 0.00 0.00 0.00 96 1010.1
20260902113140 78 236 0.0 0.0 0.00 0.00 0.00 96 1010.0
20260902112637 78 236 0.0 0.0 0.00 0.00 0.00 96 1010.0
20260902112135 78 236 0.0 0.0 0.00 0.00 0.00 96 1009.9
20260902111635 78 236 0.0 0.0 0.00 0.00 0.00 96 1010.0
20260902111132 78 236 0.0 0.0 0.00 0.00 0.00 96 1010.0
20260902110902 78 236 0.0 0.0 0.00 0.00 0.00 96 1010.0
20260902110132 78 236 0.0 0.0 0.00 0.00 0.00 96 1010.0
20260902105902 78 236 0.0 1.0 0.00 0.00 0.00 96 1010.0
20260902105133 78 236 0.0 1.0 0.00 0.00 0.00 96 1010.0
20260902105128 78 236 0.0 1.0 0.00 0.00 0.00 96 1009.9
20260902104123 78 236 0.0 1.0 0.00 0.00 0.00 96 1009.9
20260902103853 78 236 0.0 0.0 0.00 0.00 0.00 95 1009.9
20260902103119 78 237 0.0 0.0 0.00 0.00 0.00 95 1009.8
20260902102617 78 237 0.0 0.0 0.00 0.00 0.00 95 1009.8
20260902102116 78 237 0.0 0.0 0.00 0.00 0.00 95 1009.7
20260902101614 78 237 0.0 1.0 0.00 0.00 0.00 95 1009.8
20260902101609 78 237 0.0 1.0 0.00 0.00 0.00 95 1009.8
20260902100607 78 234 0.0 1.0 0.00 0.00 0.00 95 1009.8
20260902100105 78 234 0.0 0.0 0.00 0.00 0.00 95 1009.7
20260902095605 78 234 0.0 0.0 0.00 0.00 0.00 95 1009.8
20260902095101 78 234 0.0 0.0 0.00 0.00 0.00 95 1009.8
20260902094600 78 234 0.0 0.0 0.00 0.00 0.00 95 1009.8
20260902094058 79 234 0.0 1.0 0.00 0.00 0.00 94 1009.7
20260902093559 79 234 0.0 1.0 0.00 0.00 0.00 94 1009.7
20260902093059 79 234 0.0 1.0 0.00 0.00 0.00 94 1009.8
20260902092559 79 234 0.0 1.0 0.00 0.00 0.00 94 1009.9
20260902092053 79 234 0.0 1.0 0.00 0.00 0.00 94 1009.8
20260902091551 79 234 0.0 1.0 0.00 0.00 0.00 94 1009.7
20260902091319 79 234 0.0 1.0 0.00 0.00 0.00 94 1009.7
20260902090547 79 234 0.0 1.0 0.00 0.00 0.00 94 1009.7
20260902090047 79 234 0.0 1.0 0.00 0.00 0.00 94 1009.7
20260902085540 79 233 0.0 1.0 0.00 0.00 0.00 94 1009.6
20260902085039 79 246 0.0 1.0 0.00 0.00 0.00 93 1009.6
20260902084537 79 247 0.0 1.0 0.00 0.00 0.00 93 1009.6
20260902084035 79 247 0.0 1.0 0.00 0.00 0.00 93 1009.7
20260902083535 79 247 0.0 2.0 0.00 0.00 0.00 93 1009.8
20260902083033 79 247 0.0 2.0 0.00 0.00 0.00 93 1009.8
20260902082531 80 255 0.0 2.0 0.00 0.00 0.00 93 1009.8
20260902082029 80 233 0.0 2.0 0.00 0.00 0.00 93 1009.8
20260902081529 80 156 0.0 3.0 0.00 0.00 0.00 93 1009.8
20260902081259 80 236 0.0 3.0 0.00 0.00 0.00 92 1009.8
20260902080528 80 240 0.0 4.0 0.00 0.00 0.00 92 1009.8
20260902080022 80 214 1.0 4.0 0.00 0.00 0.00 92 1009.8
20260902075753 80 243 0.0 2.0 0.00 0.00 0.00 92 1009.8
20260902075021 80 213 1.0 3.0 0.00 0.00 0.00 92 1009.8
20260902074523 80 254 0.0 3.0 0.00 0.00 0.00 92 1009.8
20260902074023 80 220 0.0 2.0 0.00 0.00 0.00 92 1009.9
20260902073523 80 233 0.0 2.0 0.00 0.00 0.00 92 1009.9
20260902073015 80 233 0.0 2.0 0.00 0.00 0.00 92 1009.9
20260902072515 80 263 1.0 4.0 0.00 0.00 0.00 92 1010.0
20260902072013 80 255 1.0 4.0 0.00 0.00 0.00 92 1010.0
20260902071510 80 233 1.0 4.0 0.00 0.00 0.00 92 1009.9
20260902071010 80 230 1.0 4.0 0.00 0.00 0.00 92 1009.8
20260902070507 80 256 1.0 4.0 0.00 0.00 0.00 92 1009.8
20260902070006 80 245 0.0 3.0 0.00 0.00 0.00 92 1009.9
20260902065733 80 262 0.0 3.0 0.00 0.00 0.00 92 1009.8
20260902065006 80 201 0.0 3.0 0.00 0.00 0.00 92 1009.8
20260902064501 80 229 0.0 2.0 0.00 0.00 0.00 92 1009.8
20260902064231 80 246 0.0 2.0 0.00 0.00 0.00 91 1009.8
20260902063459 80 250 0.0 2.0 0.00 0.00 0.00 91 1009.9
20260902062956 81 176 0.0 2.0 0.00 0.00 0.00 91 1009.9
20260902062727 81 233 0.0 4.0 0.00 0.00 0.00 91 1009.9
20260902062229 81 206 1.0 4.0 0.00 0.00 0.00 91 1009.9
20260902061725 81 260 1.0 4.0 0.00 0.00 0.00 90 1009.9
20260902060955 81 258 0.0 3.0 0.00 0.00 0.00 90 1009.9
20260902060721 81 225 1.0 3.0 0.00 0.00 0.00 90 1009.9
20260902055954 81 238 0.0 3.0 0.00 0.00 0.00 90 1009.9
20260902055947 81 224 1.0 3.0 0.00 0.00 0.00 90 1009.8
20260902055215 81 260 0.0 3.0 0.00 0.00 0.00 89 1009.9
20260902054445 81 224 0.0 3.0 0.00 0.00 0.00 89 1010.0
20260902054214 81 244 0.0 3.0 0.00 0.00 0.00 89 1010.0
20260902053444 81 226 0.0 3.0 0.00 0.00 0.00 89 1010.0
20260902052945 82 229 0.0 3.0 0.00 0.00 0.00 89 1010.0
20260902052440 82 230 0.0 2.0 0.00 0.00 0.00 89 1009.8
20260902051941 82 214 0.0 2.0 0.00 0.00 0.00 88 1010.0
20260902051440 82 240 0.0 2.0 0.00 0.00 0.00 88 1010.0
20260902051217 82 240 0.0 1.0 0.00 0.00 0.00 88 1010.0
20260902050939 82 238 0.0 1.0 0.00 0.00 0.00 88 1010.0
20260902045938 82 240 0.0 1.0 0.00 0.00 0.00 87 1010.0
20260902045436 82 239 0.0 1.0 0.00 0.00 0.00 87 1009.9
20260902045203 82 242 0.0 1.0 0.00 0.00 0.00 87 1009.9
20260902044434 82 229 0.0 1.0 0.00 0.00 0.00 86 1009.9
20260902043934 82 222 0.0 1.0 0.00 0.00 0.00 86 1009.9
20260902043705 82 232 0.0 3.0 0.00 0.00 0.00 86 1010.0
20260902042932 81 204 0.0 3.0 0.00 0.00 0.00 86 1009.9
20260902042430 81 238 0.0 0.0 0.00 0.00 0.00 86 1009.9
20260902041937 81 238 0.0 0.0 0.00 0.00 0.00 85 1010.0
20260902041930 81 238 0.0 0.0 0.00 0.00 0.00 86 1009.9
20260902040928 81 238 0.0 0.0 0.00 0.00 0.00 85 1010.1
20260902040658 82 238 0.0 0.0 0.00 0.00 0.00 85 1010.1
20260902035925 82 238 0.0 0.0 0.00 0.00 0.00 84 1010.1
20260902035424 82 238 0.0 0.0 0.00 0.00 0.00 85 1010.1
20260902034924 82 238 0.0 0.0 0.00 0.00 0.00 84 1010.2
20260902034424 82 238 0.0 0.0 0.00 0.00 0.00 84 1010.2
20260902033922 82 238 0.0 0.0 0.00 0.00 0.00 84 1010.1
20260902033422 82 238 0.0 0.0 0.00 0.00 0.00 83 1010.1
20260902032916 82 238 0.0 0.0 0.00 0.00 0.00 83 1010.1
20260902032646 82 238 0.0 0.0 0.00 0.00 0.00 83 1009.9
20260902031913 82 238 0.0 0.0 0.00 0.00 0.00 83 1009.9
20260902031410 82 238 0.0 0.0 0.00 0.00 0.00 82 1009.9
20260902030910 82 238 0.0 0.0 0.00 0.00 0.00 82 1009.8
20260902030404 82 238 0.0 0.0 0.00 0.00 0.00 81 1009.7
20260902025902 82 238 0.0 0.0 0.00 0.00 0.00 81 1009.6
20260902025400 82 238 0.0 1.0 0.00 0.00 0.00 81 1009.6
20260902024858 83 238 0.0 1.0 0.00 0.00 0.00 80 1009.5
20260902024628 83 238 0.0 1.0 0.00 0.00 0.00 80 1009.5
20260902023852 83 238 0.0 1.0 0.00 0.00 0.00 80 1009.4
20260902023350 83 121 0.0 1.0 0.00 0.00 0.00 80 1009.4
20260902022848 83 121 0.0 0.0 0.00 0.00 0.00 80 1009.4
20260902022347 83 121 0.0 0.0 0.00 0.00 0.00 80 1009.4
20260902022116 83 121 0.0 0.0 0.00 0.00 0.00 80 1009.3
20260902021343 83 121 0.0 0.0 0.00 0.00 0.00 80 1009.1
20260902020841 83 121 0.0 0.0 0.00 0.00 0.00 80 1009.1
20260902020342 83 121 0.0 0.0 0.00 0.00 0.00 80 1008.9
20260902020113 83 121 0.0 0.0 0.00 0.00 0.00 79 1008.9
20260902015340 83 121 0.0 0.0 0.00 0.00 0.00 80 1008.8
20260902014840 83 121 0.0 0.0 0.00 0.00 0.00 80 1008.8
20260902014338 83 121 0.0 0.0 0.00 0.00 0.00 78 1008.7
20260902013836 83 121 0.0 0.0 0.00 0.00 0.00 78 1008.8
20260902013335 83 121 0.0 0.0 0.00 0.00 0.00 78 1008.6
20260902013107 84 121 0.0 0.0 0.00 0.00 0.00 78 1008.5
20260902012334 84 121 0.0 0.0 0.00 0.00 0.00 78 1008.4
20260902011833 84 121 0.0 0.0 0.00 0.00 0.00 77 1008.4
20260902011600 84 121 0.0 0.0 0.00 0.00 0.00 77 1008.5
20260902010826 85 121 0.0 0.0 0.00 0.00 0.00 76 1008.5
20260902010329 85 121 0.0 1.0 0.00 0.00 0.00 76 1008.5
20260902005828 85 121 0.0 1.0 0.00 0.00 0.00 75 1008.6
20260902005326 85 121 0.0 1.0 0.00 0.00 0.00 74 1008.7
20260902004826 85 91 0.0 1.0 0.00 0.00 0.00 75 1008.8
20260902004320 86 91 0.0 2.0 0.00 0.00 0.00 75 1008.8
20260902004051 86 88 1.0 4.0 0.00 0.00 0.00 74 1008.8
20260902003319 86 74 2.0 6.0 0.00 0.00 0.00 74 1008.8
20260902002819 86 89 2.0 6.0 0.00 0.00 0.00 74 1008.7
20260902002319 86 46 2.0 5.0 0.00 0.00 0.00 73 1008.7
20260902001820 86 219 1.0 4.0 0.00 0.00 0.00 73 1008.7
20260902001312 87 85 2.0 5.0 0.00 0.00 0.00 74 1008.7
20260902000813 87 80 2.0 7.0 0.00 0.00 0.00 73 1008.7
20260902000314 87 58 1.0 7.0 0.00 0.00 0.00 71 1008.7
20260901235814 88 53 0.0 3.0 0.00 0.00 0.00 68 1008.6
20260901235314 88 134 0.0 1.0 0.00 0.00 0.00 66 1008.4
20260901234814 88 134 0.0 2.0 0.00 0.00 0.00 66 1008.4
20260901234308 89 134 0.0 2.0 0.00 0.00 0.00 66 1008.5
20260901233806 89 124 0.0 2.0 0.00 0.00 0.00 65 1008.5
20260901233304 89 122 0.0 2.0 0.00 0.00 0.00 65 1008.5
20260901232802 89 122 0.0 2.0 0.00 0.00 0.00 64 1008.6
20260901232305 89 102 0.0 2.0 0.00 0.00 0.00 64 1008.6
20260901232032 89 102 0.0 2.0 0.00 0.00 0.00 63 1008.6
20260901231259 89 95 0.0 2.0 0.00 0.00 0.00 63 1008.7
20260901230805 89 75 1.0 4.0 0.00 0.00 0.00 62 1008.7
20260901230759 89 111 1.0 4.0 0.00 0.00 0.00 62 1008.7
20260901225800 89 51 0.0 4.0 0.00 0.00 0.00 61 1008.7
20260901225259 89 65 1.0 3.0 0.00 0.00 0.00 62 1008.7
20260901224800 89 89 2.0 4.0 0.00 0.00 0.00 62 1008.7
20260901224300 90 59 1.0 3.0 0.00 0.00 0.00 61 1008.8
20260901224253 89 82 2.0 4.0 0.00 0.00 0.00 61 1008.8
20260901223910 90 86 1.0 3.0 0.00 0.00 0.00 61 1008.7
20260901222748 90 21 1.0 3.0 0.00 0.00 0.00 61 1008.7
20260901222248 90 70 1.0 4.0 0.00 0.00 0.00 58 1008.7
20260901221742 90 293 1.0 4.0 0.00 0.00 0.00 58 1008.7
20260901221245 90 305 1.0 6.0 0.00 0.00 0.00 58 1008.8
20260901221240 90 304 1.0 4.0 0.00 0.00 0.00 58 1008.7
20260901220236 90 25 1.0 6.0 0.00 0.00 0.00 58 1008.9
20260901215737 90 63 1.0 2.0 0.00 0.00 0.00 59 1008.9
20260901215238 90 34 1.0 4.0 0.00 0.00 0.00 60 1009.0
20260901214741 90 70 2.0 8.0 0.00 0.00 0.00 62 1009.2
20260901214736 90 127 2.0 5.0 0.00 0.00 0.00 61 1009.1
20260901213735 90 72 3.0 8.0 0.00 0.00 0.00 62 1009.2
20260901213233 91 57 2.0 6.0 0.00 0.00 0.00 62 1009.3
20260901212735 91 27 1.0 4.0 0.00 0.00 0.00 62 1009.2
20260901212234 91 78 1.0 3.0 0.00 0.00 0.00 61 1009.1
20260901211735 91 354 2.0 5.0 0.00 0.00 0.00 62 1009.0
20260901211232 91 82 2.0 5.0 0.00 0.00 0.00 61 1008.9
20260901210734 91 264 2.0 5.0 0.00 0.00 0.00 61 1008.9
20260901210233 91 41 3.0 7.0 0.00 0.00 0.00 62 1008.9
20260901205734 91 56 3.0 7.0 0.00 0.00 0.00 61 1009.0
20260901205234 92 117 2.0 5.0 0.00 0.00 0.00 60 1009.0
20260901204735 92 335 2.0 7.0 0.00 0.00 0.00 60 1009.0
20260901204229 92 60 3.0 7.0 0.00 0.00 0.00 61 1009.1
20260901203731 92 82 3.0 8.0 0.00 0.00 0.00 60 1009.1
20260901203228 93 110 3.0 8.0 0.00 0.00 0.00 58 1009.3
20260901203001 94 20 3.0 7.0 0.00 0.00 0.00 57 1009.3
20260901202230 94 52 2.0 7.0 0.00 0.00 0.00 57 1009.4
20260901201732 95 301 2.0 7.0 0.00 0.00 0.00 55 1009.4
20260901201225 95 44 3.0 9.0 0.00 0.00 0.00 57 1009.5
20260901200725 94 333 3.0 9.0 0.00 0.00 0.00 57 1009.5
20260901200456 95 97 2.0 6.0 0.00 0.00 0.00 56 1009.6
20260901195724 95 95 1.0 5.0 0.00 0.00 0.00 55 1009.6
20260901195225 96 296 1.0 5.0 0.00 0.00 0.00 57 1009.7
20260901194726 95 7 2.0 5.0 0.00 0.00 0.00 57 1009.8
20260901194451 95 1 2.0 6.0 0.00 0.00 0.00 57 1009.9
20260901193954 95 306 2.0 6.0 0.00 0.00 0.00 58 1009.9
20260901193221 94 12 3.0 6.0 0.00 0.00 0.00 57 1009.9
20260901192951 94 286 3.0 6.0 0.00 0.00 0.00 58 1010.0